When you browse on this site, cookies collect data to enhance your experience and personalize the content and advertising you see.
Visit our Privacy Policy to learn more. By continuing to use the site, you agree to this use of cookies and data.
  • en Suisse
  • Liste des pays
  • À 7 jours
  • Température de l'eau
  • Carte satellitaire
  • Carte météo
  • Widgets météo
  • user-avatar
    Se connecter

    Météo par heure à Yanliang

    Ce jour, 26 Mai, Dimanche

    Heure Température Précipitation Vent Pression Humidité
    00:00 +28°C° 0 mm 1 m/s 719 mmHg 43%
    01:00 +27°C° 0 mm 1 m/s 719 mmHg 44%
    02:00 +27°C° 0 mm 1 m/s 719 mmHg 46%
    03:00 +26°C° 0 mm 1 m/s 720 mmHg 49%
    04:00 +25°C° 0 mm 1 m/s 720 mmHg 51%
    05:00 +27°C° 0 mm 2 m/s 721 mmHg 44%
    06:00 +29°C° 0 mm 2 m/s 721 mmHg 36%
    07:00 +32°C° 0 mm 5 m/s 723 mmHg 19%
    08:00 +34°C° 0 mm 5 m/s 723 mmHg 17%
    09:00 +35°C° 0 mm 5 m/s 723 mmHg 15%
    10:00 +36°C° 0 mm 5 m/s 723 mmHg 13%
    11:00 +38°C° 0 mm 6 m/s 723 mmHg 12%
    12:00 +39°C° 0 mm 6 m/s 723 mmHg 11%
    13:00 +39°C° 0 mm 6 m/s 723 mmHg 12%
    14:00 +38°C° 0 mm 7 m/s 723 mmHg 12%
    15:00 +38°C° 0 mm 7 m/s 723 mmHg 13%
    16:00 +36°C° 0 mm 7 m/s 723 mmHg 13%
    17:00 +34°C° 0 mm 7 m/s 724 mmHg 15%
    18:00 +30°C° 0 mm 6 m/s 724 mmHg 18%
    19:00 +28°C° 0 mm 2 m/s 724 mmHg 22%
    20:00 +27°C° 0 mm 3 m/s 725 mmHg 23%
    21:00 +26°C° 0 mm 4 m/s 726 mmHg 23%
    22:00 +25°C° 0 mm 5 m/s 727 mmHg 24%
    23:00 +23°C° 0 mm 4 m/s 727 mmHg 25%

    Demain, 27 Mai, Lundi

    Heure Température Précipitation Vent Pression Humidité
    00:00 +22°C° 0 mm 3 m/s 728 mmHg 26%
    01:00 +21°C° 0 mm 2 m/s 728 mmHg 28%
    02:00 +21°C° 0 mm 2 m/s 729 mmHg 28%
    03:00 +20°C° 0 mm 2 m/s 729 mmHg 28%
    04:00 +20°C° 0 mm 2 m/s 729 mmHg 29%
    05:00 +21°C° 0 mm 2 m/s 730 mmHg 27%
    06:00 +22°C° 0 mm 3 m/s 730 mmHg 25%
    07:00 +24°C° 0 mm 3 m/s 731 mmHg 23%
    08:00 +24°C° 0 mm 3 m/s 731 mmHg 23%
    09:00 +25°C° 0 mm 3 m/s 731 mmHg 23%
    10:00 +25°C° 0 mm 2 m/s 731 mmHg 23%
    11:00 +25°C° 0 mm 2 m/s 731 mmHg 24%
    12:00 +25°C° 0 mm 2 m/s 730 mmHg 25%
    13:00 +25°C° 0 mm 2 m/s 730 mmHg 26%
    14:00 +25°C° 0 mm 3 m/s 730 mmHg 28%
    15:00 +24°C° 0 mm 3 m/s 730 mmHg 30%
    16:00 +23°C° 0 mm 4 m/s 729 mmHg 31%
    17:00 +22°C° 0 mm 4 m/s 729 mmHg 34%
    18:00 +21°C° 0 mm 4 m/s 729 mmHg 36%
    19:00 +20°C° 0 mm 4 m/s 729 mmHg 38%
    20:00 +20°C° 0 mm 3 m/s 730 mmHg 39%
    21:00 +20°C° 0 mm 3 m/s 730 mmHg 40%
    22:00 +19°C° 0 mm 2 m/s 731 mmHg 42%
    23:00 +19°C° 0 mm 2 m/s 730 mmHg 42%

    Après-demain, 28 Mai, Mardi

    Heure Température Précipitation Vent Pression Humidité
    00:00 +20°C° 0 mm 1 m/s 730 mmHg 43%
    01:00 +20°C° 0 mm 1 m/s 730 mmHg 44%
    02:00 +20°C° 0 mm 1 m/s 730 mmHg 44%
    03:00 +20°C° 0 mm 1 m/s 730 mmHg 45%
    04:00 +18°C° 0 mm 2 m/s 730 mmHg 46%
    05:00 +18°C° 0.5 mm 2 m/s 730 mmHg 53%
    06:00 +18°C° 0.5 mm 2 m/s 730 mmHg 59%
    07:00 +17°C° 0.5 mm 2 m/s 731 mmHg 66%
    08:00 +17°C° 0.9 mm 3 m/s 731 mmHg 68%
    09:00 +17°C° 0.9 mm 3 m/s 731 mmHg 70%
    10:00 +17°C° 0.9 mm 3 m/s 732 mmHg 72%
    11:00 +18°C° 0.6 mm 3 m/s 731 mmHg 70%
    12:00 +18°C° 0.6 mm 2 m/s 731 mmHg 68%
    13:00 +19°C° 0.6 mm 2 m/s 731 mmHg 67%
    14:00 +20°C° 0 mm 2 m/s 730 mmHg 59%
    15:00 +23°C° 0 mm 2 m/s 730 mmHg 51%
    16:00 +24°C° 0 mm 2 m/s 729 mmHg 43%
    17:00 +23°C° 0 mm 2 m/s 729 mmHg 45%
    18:00 +21°C° 0 mm 2 m/s 729 mmHg 47%
    19:00 +20°C° 0 mm 2 m/s 728 mmHg 50%
    20:00 +20°C° 0 mm 1 m/s 728 mmHg 53%
    21:00 +19°C° 0 mm 1 m/s 729 mmHg 55%
    22:00 +18°C° 0 mm 1 m/s 729 mmHg 58%
    23:00 +18°C° 0 mm 1 m/s 728 mmHg 60%

    29 Mai, Mercredi

    Heure Température Précipitation Vent Pression Humidité
    00:00 +18°C° 0 mm 1 m/s 727 mmHg 61%
    01:00 +16°C° 0 mm 1 m/s 727 mmHg 63%
    02:00 +16°C° 0 mm 1 m/s 726 mmHg 63%
    03:00 +16°C° 0 mm 1 m/s 726 mmHg 64%
    04:00 +15°C° 0 mm 1 m/s 726 mmHg 65%
    05:00 +18°C° 0 mm 1 m/s 726 mmHg 60%
    06:00 +19°C° 0 mm 1 m/s 726 mmHg 54%
    07:00 +21°C° 0 mm 1 m/s 726 mmHg 49%
    08:00 +23°C° 0 mm 1 m/s 726 mmHg 44%
    09:00 +25°C° 0 mm 1 m/s 726 mmHg 40%
    10:00 +26°C° 0 mm 1 m/s 726 mmHg 35%
    11:00 +28°C° 0 mm 1 m/s 725 mmHg 34%
    12:00 +29°C° 0 mm 1 m/s 725 mmHg 32%
    13:00 +30°C° 0 mm 1 m/s 724 mmHg 30%
    14:00 +30°C° 0 mm 2 m/s 724 mmHg 31%
    15:00 +29°C° 0 mm 2 m/s 723 mmHg 31%
    16:00 +29°C° 0 mm 2 m/s 723 mmHg 32%
    17:00 +28°C° 0 mm 2 m/s 723 mmHg 35%
    18:00 +27°C° 0 mm 2 m/s 723 mmHg 37%
    19:00 +26°C° 0 mm 2 m/s 723 mmHg 40%
    20:00 +25°C° 0 mm 2 m/s 723 mmHg 43%
    21:00 +24°C° 0 mm 2 m/s 724 mmHg 45%
    22:00 +24°C° 0 mm 2 m/s 724 mmHg 48%
    23:00 +23°C° 0 mm 2 m/s 724 mmHg 50%

    30 Mai, Jeudi

    Heure Température Précipitation Vent Pression Humidité
    00:00 +23°C° 0 mm 2 m/s 724 mmHg 51%
    01:00 +23°C° 0 mm 2 m/s 724 mmHg 52%
    02:00 +23°C° 0 mm 2 m/s 724 mmHg 54%
    03:00 +21°C° 0 mm 2 m/s 724 mmHg 55%
    04:00 +21°C° 0 mm 2 m/s 723 mmHg 57%
    05:00 +22°C° 0 mm 3 m/s 724 mmHg 53%
    06:00 +24°C° 0 mm 3 m/s 724 mmHg 48%
    07:00 +25°C° 0 mm 3 m/s 724 mmHg 44%
    08:00 +28°C° 0 mm 3 m/s 725 mmHg 39%
    09:00 +30°C° 0 mm 3 m/s 725 mmHg 33%
    10:00 +32°C° 0 mm 2 m/s 725 mmHg 28%
    11:00 +34°C° 0 mm 3 m/s 725 mmHg 24%
    12:00 +36°C° 0 mm 3 m/s 724 mmHg 20%
    13:00 +37°C° 0 mm 3 m/s 724 mmHg 17%
    14:00 +37°C° 0 mm 3 m/s 723 mmHg 16%
    15:00 +37°C° 0 mm 3 m/s 723 mmHg 16%
    16:00 +37°C° 0 mm 4 m/s 723 mmHg 15%
    17:00 +35°C° 0 mm 4 m/s 723 mmHg 16%
    18:00 +33°C° 0 mm 3 m/s 723 mmHg 16%
    19:00 +30°C° 0 mm 3 m/s 724 mmHg 17%
    20:00 +29°C° 0 mm 3 m/s 724 mmHg 18%
    21:00 +28°C° 0 mm 2 m/s 725 mmHg 18%
    22:00 +26°C° 0 mm 1 m/s 725 mmHg 19%
    23:00 +26°C° 0 mm 1 m/s 725 mmHg 21%

    31 Mai, Vendredi

    Heure Température Précipitation Vent Pression Humidité
    00:00 +25°C° 0 mm 1 m/s 725 mmHg 22%
    01:00 +24°C° 0 mm 1 m/s 725 mmHg 24%
    02:00 +24°C° 0 mm 1 m/s 725 mmHg 24%
    03:00 +24°C° 0 mm 1 m/s 725 mmHg 25%
    04:00 +23°C° 0 mm 1 m/s 725 mmHg 25%
    05:00 +24°C° 0 mm 1 m/s 725 mmHg 24%
    06:00 +25°C° 0 mm 1 m/s 725 mmHg 22%
    07:00 +26°C° 0 mm 1 m/s 725 mmHg 21%
    08:00 +29°C° 0 mm 1 m/s 725 mmHg 18%
    09:00 +31°C° 0 mm 1 m/s 725 mmHg 15%
    10:00 +33°C° 0 mm 1 m/s 725 mmHg 13%
    11:00 +34°C° 0 mm 1 m/s 724 mmHg 12%
    12:00 +35°C° 0 mm 1 m/s 724 mmHg 12%
    13:00 +37°C° 0 mm 1 m/s 723 mmHg 12%
    14:00 +37°C° 0 mm 1 m/s 723 mmHg 12%
    15:00 +36°C° 0 mm 1 m/s 722 mmHg 13%
    16:00 +37°C° 0 mm 2 m/s 722 mmHg 13%
    17:00 +36°C° 0 mm 2 m/s 722 mmHg 19%
    18:00 +34°C° 0 mm 3 m/s 722 mmHg 25%
    19:00 +32°C° 0 mm 4 m/s 722 mmHg 31%
    20:00 +30°C° 0 mm 3 m/s 722 mmHg 36%
    21:00 +29°C° 0 mm 2 m/s 722 mmHg 40%
    22:00 +28°C° 0 mm 2 m/s 722 mmHg 45%
    23:00 +27°C° 0 mm 2 m/s 722 mmHg 46%
    Voir plus